Wind_Speed
1 1 1 2 1 2 3 4 4 6 8 9 9 8 7 5 3 1 0 2 3 6 9 11 13 12 11 10 11 12 14 16 18 18 16 13 11 10 8 8 8 6 5 4 4 4 3 7 11
1 2 2 3 3 3 3 4 4 6 8 9 9 8 7 6 5 3 0 1 1 2 5 8 11 12 11 10 9 11 13 15 16 17 16 15 13 11 10 9 9 9 7 6 5 4 3 4 9
2 2 2 3 3 4 5 3 2 5 6 7 8 9 8 8 7 5 3 2 2 1 2 5 8 10 10 9 8 9 11 13 14 16 16 15 14 13 11 10 10 10 9 7 5 5 4 1 7
2 2 1 3 3 2 3 3 1 3 5 7 7 8 10 10 10 8 5 3 3 3 2 2 4 7 9 8 7 7 8 10 12 14 16 16 15 14 13 12 10 10 9 8 5 5 5 2 4
4 3 3 3 2 1 3 4 2 1 5 8 7 8 9 10 11 10 8 5 4 4 4 3 2 5 7 7 6 6 6 8 10 12 15 16 16 16 15 13 10 9 8 7 5 4 4 3 2
6 3 2 1 0 1 2 2 1 2 6 8 9 9 8 9 9 10 10 7 4 5 5 4 2 3 5 6 5 4 4 6 8 10 12 15 16 16 16 15 12 10 8 7 5 3 2 2 1
8 6 3 1 1 1 0 1 2 5 7 8 9 10 9 8 8 9 9 8 6 5 6 6 4 2 2 4 5 4 4 4 7 8 10 12 14 15 15 16 15 12 9 7 5 2 1 0 1
10 9 8 4 3 4 3 2 3 5 7 8 9 9 9 9 9 8 9 9 7 6 7 8 7 5 3 2 3 4 4 5 6 7 8 9 11 12 13 15 15 13 11 8 6 3 2 3 4
12 12 11 9 8 7 5 4 4 5 6 7 8 9 9 10 10 9 9 9 7 7 8 10 10 9 7 5 4 4 5 6 6 7 7 7 8 9 11 12 13 13 11 10 8 6 5 6 7
15 14 13 12 10 9 9 8 8 7 8 8 9 10 10 11 11 10 9 8 8 8 9 10 11 11 10 9 7 7 7 7 7 8 8 7 7 8 9 10 11 11 11 11 10 8 7 7 9
17 16 15 14 13 12 13 13 12 11 10 10 11 12 13 13 13 13 11 10 8 8 9 10 12 12 12 11 10 9 10 10 10 10 9 8 8 7 8 9 10 10 10 11 11 10 7 8 10
18 18 18 17 16 16 16 17 16 15 14 13 14 14 15 15 15 15 14 12 10 9 9 10 11 12 13 13 12 11 11 12 13 12 12 12 10 8 7 9 9 9 8 9 10 10 9 8 10
20 20 20 19 18 18 18 18 19 18 18 17 17 17 16 16 16 17 17 15 13 11 10 10 11 12 13 14 14 13 14 15 15 14 14 14 12 10 8 9 10 10 10 9 8 9 9 8 9
21 21 22 22 21 21 21 21 21 21 22 22 21 20 18 17 17 18 19 18 16 14 13 12 13 14 16 16 16 16 16 17 16 16 15 14 14 12 12 12 13 12 13 13 11 9 8 7 8
24 25 25 25 26 26 27 25 26 27 26 26 24 23 20 18 17 17 19 20 18 16 15 15 15 17 18 19 18 17 17 16 16 15 15 15 15 15 15 15 15 14 15 16 17 15 11 9 9
29 30 30 31 32 32 33 31 31 31 31 30 28 26 23 21 19 17 19 20 20 19 18 17 17 18 19 20 19 17 16 16 15 15 15 15 16 18 18 17 17 16 17 18 20 20 17 15 13
33 35 35 36 36 37 37 37 36 37 36 35 33 31 29 26 22 20 20 21 22 22 21 20 20 21 21 21 20 18 16 16 16 15 15 16 17 19 20 20 19 19 19 20 21 21 21 20 18
36 38 39 39 40 40 40 40 39 41 41 40 39 37 34 31 27 25 23 23 24 25 25 24 23 24 24 24 23 21 18 17 18 17 17 18 19 20 21 21 21 22 22 23 23 23 24 24 22
37 38 39 40 40 40 40 40 40 42 44 43 42 41 39 35 32 30 28 26 26 26 27 27 26 26 26 25 25 23 21 20 21 21 21 20 21 21 21 22 23 24 25 25 26 25 26 26 26
35 36 37 38 39 40 40 39 41 43 44 44 43 42 41 39 36 33 31 29 27 27 28 30 29 29 29 29 27 26 25 24 23 22 22 22 21 21 21 22 24 26 27 28 28 27 27 27 27
34 35 36 38 39 39 40 39 40 42 44 44 44 43 42 41 39 36 33 31 30 29 30 32 33 34 34 33 32 31 29 27 25 23 22 22 22 21 22 24 25 27 28 28 28 27 27 27 28
34 35 36 37 36 36 37 38 36 37 39 41 41 42 42 41 39 38 35 34 34 34 35 36 36 37 39 39 36 33 29 27 25 24 23 23 24 24 25 25 26 27 27 26 26 26 26 27 27
38 38 39 39 38 37 35 38 37 36 35 35 36 37 39 39 38 37 36 35 36 38 38 39 38 40 41 39 36 33 31 28 26 24 24 25 26 25 25 25 26 25 25 24 24 25 26 27 27
43 43 44 44 43 41 37 38 38 35 32 30 29 30 33 35 36 35 35 36 38 40 41 41 40 44 44 40 37 34 31 28 25 23 23 24 24 24 25 25 25 24 23 24 25 26 27 27 27
47 47 48 48 47 44 39 37 36 31 27 24 23 24 27 30 33 35 36 37 39 40 42 43 43 46 44 40 35 33 30 26 22 21 22 23 24 24 25 25 24 23 23 24 25 26 26 25 25
49 49 47 47 46 42 37 35 33 27 24 21 20 21 23 27 30 34 37 38 39 39 41 41 44 44 41 40 37 32 27 23 20 19 20 22 23 24 25 25 24 24 24 25 26 26 25 24 23
46 44 43 41 38 35 31 31 28 24 23 22 21 20 21 24 28 32 35 37 37 38 38 39 42 39 37 35 30 27 22 18 17 19 20 22 23 25 26 26 26 25 25 26 26 25 24 23 22
30 26 22 22 22 21 22 23 22 22 22 21 21 20 19 21 24 28 31 34 35 34 34 34 35 32 29 27 22 18 14 14 17 19 20 22 24 26 28 29 28 27 27 26 24 24 23 22 21
15 13 11 10 11 12 13 14 15 15 18 17 16 18 17 16 17 20 24 27 27 28 26 25 25 22 20 17 14 12 13 15 17 19 22 23 25 26 27 27 27 26 25 24 23 22 22 21 20
14 11 7 3 1 4 5 5 7 9 11 13 13 14 14 11 10 10 10 9 8 7 9 11 12 12 11 10 10 12 13 15 17 19 21 21 21 22 22 23 23 23 23 23 23 22 21 20 20
Wind_Direction
109 303 313 300 328 19 352 340 342 0 8 11 14 21 23 9 358 322 98 115 72 51 41 35 35 41 51 57 52 49 47 43 40 40 41 43 41 39 36 33 33 28 19 14 6 342 285 236 220
303 301 290 294 300 303 309 333 2 25 20 11 5 3 10 12 10 2 281 184 156 69 45 33 32 38 46 49 47 45 43 38 35 35 38 42 40 37 32 29 30 28 22 15 10 0 328 235 216
277 298 321 328 318 290 277 295 11 46 27 16 6 356 355 360 360 354 334 248 217 191 51 31 31 37 44 45 42 37 36 33 30 31 35 38 37 34 32 30 27 26 25 20 13 11 8 273 214
237 252 313 340 355 302 234 239 187 58 33 23 8 353 352 356 360 354 339 307 250 227 240 358 26 36 39 40 41 35 31 28 28 31 35 36 34 31 30 29 27 25 25 25 18 14 19 32 202
229 245 287 309 2 5 213 203 199 109 50 35 17 353 348 350 356 357 349 325 275 239 244 275 358 35 33 32 37 36 31 26 26 30 35 36 33 31 29 29 28 26 26 29 28 19 24 34 179
232 242 291 303 124 98 172 166 152 57 46 34 20 2 351 349 352 354 352 339 304 252 243 253 295 21 28 25 28 29 26 22 24 27 32 36 36 36 34 32 32 32 26 26 28 25 22 26 183
235 236 241 57 99 75 79 73 28 25 29 26 19 8 0 354 354 357 355 342 320 270 240 237 249 281 2 16 21 16 5 6 14 20 25 32 36 35 33 31 32 34 29 21 18 12 333 230 208
240 240 244 259 293 309 305 323 351 2 7 10 9 6 5 354 350 358 357 345 321 288 252 236 237 246 263 314 4 4 353 345 353 7 16 23 31 34 32 30 29 31 28 17 2 339 254 224 216
244 248 254 266 287 304 301 306 317 323 332 344 348 354 359 351 344 346 350 349 329 300 271 249 243 246 251 254 276 317 334 334 332 343 360 6 14 24 27 26 25 26 22 11 351 322 280 242 227
243 249 255 263 276 289 295 299 303 301 304 314 323 331 341 341 336 335 335 340 337 313 288 267 255 252 252 252 258 274 293 308 318 326 335 341 352 6 14 18 20 21 19 11 357 331 299 267 246
247 250 255 261 268 275 281 285 290 295 300 307 315 320 329 332 330 329 326 324 325 312 293 279 266 259 257 256 258 266 279 288 298 309 317 319 327 345 2 8 13 16 15 12 5 350 316 279 259
253 256 259 261 265 270 274 278 282 288 292 298 306 312 319 326 326 324 320 317 314 308 296 286 276 264 258 256 260 268 277 284 289 296 302 304 306 318 341 353 356 359 360 5 8 1 340 296 268
250 255 259 261 264 267 273 279 281 282 283 287 292 298 307 318 322 319 314 309 306 300 292 289 284 272 265 263 266 272 279 284 288 291 296 299 300 302 311 325 331 335 338 345 356 1 350 318 279
250 254 258 261 265 266 269 275 279 278 278 281 285 291 300 311 317 313 308 304 302 298 289 284 283 279 273 268 268 272 278 282 285 288 291 294 297 298 300 309 315 316 321 328 333 337 339 322 291
254 256 258 260 263 264 266 268 271 273 275 277 279 283 289 298 306 306 302 299 297 296 290 285 282 281 278 274 271 271 274 276 277 281 286 289 291 294 296 300 302 300 307 316 320 321 319 308 291
256 258 259 261 264 266 267 269 270 271 272 272 273 275 278 284 290 293 293 291 289 288 287 285 283 281 280 278 274 271 271 272 274 278 283 286 290 292 292 293 292 289 296 306 310 308 306 304 295
258 261 263 265 266 269 270 272 273 272 271 271 271 271 273 275 278 279 279 280 279 279 281 282 280 279 277 276 274 269 265 267 270 275 279 282 285 289 286 285 283 281 287 294 298 296 296 298 297
264 266 267 268 269 270 271 272 272 272 271 269 268 267 268 268 267 266 269 269 270 271 275 279 279 276 273 270 269 267 262 261 263 268 274 278 278 279 277 276 274 275 281 287 290 289 291 292 291
264 265 267 268 268 269 270 270 270 269 268 266 265 264 263 262 259 259 262 261 260 264 270 274 275 273 269 265 263 261 258 257 258 263 269 273 274 271 269 269 269 272 278 283 285 285 286 286 287
265 266 267 267 269 270 270 270 270 268 267 265 263 262 261 259 257 256 257 257 252 256 264 270 272 269 264 259 255 253 252 254 257 263 267 270 269 266 263 264 266 270 276 280 281 281 282 282 282
266 266 267 268 270 272 273 272 272 272 270 266 263 261 259 259 257 256 256 252 248 252 260 266 268 268 263 255 248 245 245 249 253 259 263 265 265 265 264 265 268 270 274 277 279 280 279 279 279
265 265 267 268 271 274 276 277 275 276 274 270 266 261 258 258 258 256 254 250 246 250 256 260 263 263 262 256 247 241 240 244 248 253 256 259 261 264 268 271 275 276 278 279 279 280 280 279 278
267 267 267 269 271 274 280 283 282 282 279 274 268 262 257 254 254 253 252 251 248 248 254 257 258 257 256 252 246 240 238 240 243 248 253 256 260 265 271 276 280 283 284 284 283 282 280 279 276
275 275 275 274 275 279 283 286 286 286 282 277 270 261 254 251 249 248 249 248 247 248 251 252 253 252 251 249 245 239 235 235 237 244 252 256 262 268 273 277 283 287 289 289 287 285 283 281 276
284 285 285 283 282 285 286 286 287 285 278 273 267 258 249 245 243 243 245 245 245 247 248 249 248 248 248 248 245 237 234 232 237 246 253 261 267 273 277 283 288 290 290 289 288 287 285 282 275
286 285 285 285 285 286 284 282 282 276 270 268 261 252 244 240 239 240 241 242 242 245 247 246 246 249 249 249 246 240 236 238 244 252 260 268 275 280 285 290 293 292 290 289 288 287 286 282 276
290 287 284 281 280 277 274 273 269 261 258 259 253 246 243 242 242 242 243 244 244 245 248 247 246 249 250 249 244 240 241 245 251 259 268 278 284 288 292 294 293 290 287 286 287 287 286 281 275
301 296 286 275 269 264 260 256 253 249 250 255 253 246 246 249 251 250 247 248 248 249 249 249 246 246 243 242 239 238 241 252 264 274 283 288 291 293 295 296 294 290 286 284 285 286 285 279 272
328 318 303 280 256 242 241 248 249 246 247 252 255 254 253 257 263 264 262 260 259 256 252 245 237 230 229 230 229 237 255 269 279 286 290 293 295 297 297 296 294 291 288 284 283 283 283 277 269
14 16 23 61 152 206 214 234 237 235 243 249 255 253 252 264 285 294 294 288 267 234 215 200 198 198 205 221 239 255 269 282 289 293 295 297 299 300 298 297 296 293 288 282 278 279 277 272 267
Height
5890 5891 5892 5893 5894 5894 5894 5894 5893 5892 5892 5891 5891 5891 5891 5891 5892 5894 5893 5892 5893 5893 5892 5892 5891 5890 5890 5890 5891 5890 5890 5889 5888 5887 5886 5885 5884 5884 5884 5884 5883 5883 5882 5882 5881 5880 5880 5881 5882
5891 5892 5893 5894 5894 5894 5895 5894 5893 5893 5893 5892 5891 5891 5891 5891 5891 5892 5891 5892 5892 5893 5893 5893 5892 5892 5891 5891 5891 5891 5891 5890 5889 5888 5887 5886 5885 5884 5884 5883 5883 5883 5882 5882 5881 5880 5879 5879 5881
5891 5892 5894 5894 5893 5894 5896 5895 5894 5893 5893 5893 5892 5891 5891 5891 5892 5892 5892 5892 5892 5893 5894 5894 5893 5893 5892 5891 5891 5892 5891 5891 5890 5889 5887 5886 5885 5884 5884 5883 5883 5882 5882 5882 5881 5880 5879 5879 5880
5892 5893 5894 5894 5893 5894 5895 5896 5895 5894 5894 5893 5892 5891 5891 5891 5891 5891 5891 5892 5892 5893 5893 5894 5893 5893 5892 5892 5892 5892 5892 5892 5891 5890 5888 5887 5886 5885 5884 5883 5882 5882 5882 5881 5881 5881 5880 5879 5880
5891 5893 5894 5894 5894 5895 5896 5896 5895 5894 5894 5893 5892 5891 5891 5891 5891 5891 5891 5891 5891 5892 5893 5893 5893 5893 5893 5892 5892 5892 5892 5892 5892 5891 5889 5888 5887 5886 5884 5883 5882 5882 5881 5881 5881 5881 5880 5879 5880
5892 5893 5893 5893 5894 5896 5897 5896 5896 5894 5894 5893 5892 5891 5891 5891 5891 5891 5890 5890 5890 5891 5892 5892 5893 5893 5893 5893 5892 5892 5892 5893 5892 5891 5890 5889 5888 5886 5885 5884 5882 5882 5881 5881 5881 5880 5880 5880 5880
5892 5892 5893 5893 5894 5896 5897 5896 5896 5894 5894 5894 5893 5892 5891 5890 5890 5890 5890 5889 5889 5890 5891 5891 5892 5892 5892 5892 5892 5892 5892 5893 5892 5892 5891 5890 5888 5887 5885 5884 5882 5881 5881 5880 5880 5880 5879 5879 5880
5890 5893 5893 5894 5895 5896 5897 5896 5895 5895 5894 5894 5893 5892 5891 5890 5890 5889 5889 5889 5889 5889 5889 5890 5891 5891 5891 5892 5892 5891 5892 5892 5892 5891 5891 5890 5888 5887 5885 5883 5882 5881 5880 5879 5879 5879 5879 5878 5879
5890 5893 5893 5894 5894 5895 5895 5896 5896 5895 5894 5894 5893 5893 5892 5890 5889 5889 5889 5888 5888 5888 5889 5889 5890 5890 5890 5891 5891 5891 5891 5891 5891 5891 5891 5889 5888 5887 5885 5883 5882 5880 5879 5879 5878 5878 5878 5878 5878
5888 5890 5892 5893 5893 5893 5894 5894 5895 5895 5894 5894 5893 5892 5891 5890 5889 5888 5888 5887 5887 5887 5887 5888 5888 5889 5889 5890 5890 5890 5890 5889 5890 5890 5890 5889 5888 5886 5884 5883 5881 5880 5879 5878 5877 5877 5877 5877 5878
5886 5888 5889 5890 5891 5891 5892 5892 5892 5893 5894 5893 5892 5891 5890 5890 5889 5888 5887 5886 5885 5885 5885 5886 5886 5887 5888 5888 5889 5889 5888 5888 5888 5888 5888 5888 5887 5886 5884 5882 5880 5879 5878 5877 5876 5875 5875 5875 5876
5884 5885 5886 5887 5888 5889 5889 5889 5889 5890 5891 5891 5891 5890 5889 5888 5888 5887 5886 5885 5884 5884 5883 5883 5884 5884 5885 5886 5887 5887 5887 5886 5886 5886 5886 5886 5885 5884 5883 5881 5880 5878 5877 5876 5875 5874 5874 5873 5874
5881 5882 5883 5884 5885 5885 5886 5886 5887 5887 5888 5888 5888 5888 5887 5887 5886 5884 5883 5883 5882 5882 5881 5881 5881 5882 5882 5883 5884 5884 5884 5884 5884 5883 5883 5883 5883 5882 5882 5880 5879 5877 5876 5874 5874 5873 5873 5872 5872
5877 5878 5879 5880 5880 5881 5882 5883 5883 5883 5884 5885 5885 5885 5885 5884 5884 5882 5881 5880 5880 5879 5879 5879 5879 5879 5879 5880 5880 5880 5881 5881 5881 5881 5880 5880 5880 5880 5879 5878 5877 5875 5874 5872 5872 5871 5871 5870 5869
5873 5874 5875 5875 5875 5876 5877 5879 5878 5878 5878 5879 5880 5881 5882 5881 5881 5880 5878 5877 5877 5876 5876 5875 5876 5875 5876 5876 5876 5876 5877 5877 5877 5877 5877 5877 5877 5876 5876 5875 5874 5873 5871 5870 5869 5868 5868 5868 5867
5868 5868 5869 5870 5869 5870 5872 5873 5872 5872 5872 5873 5874 5875 5877 5877 5878 5877 5876 5875 5874 5873 5873 5872 5872 5872 5872 5872 5872 5872 5872 5873 5873 5874 5873 5873 5873 5873 5872 5871 5870 5870 5868 5867 5866 5865 5864 5864 5864
5862 5862 5862 5863 5863 5863 5864 5865 5866 5865 5866 5866 5867 5868 5869 5871 5872 5872 5872 5871 5870 5870 5869 5869 5868 5868 5868 5867 5867 5868 5868 5869 5869 5869 5869 5869 5869 5868 5868 5867 5866 5866 5865 5864 5863 5861 5860 5860 5860
5856 5855 5855 5855 5855 5855 5855 5857 5857 5855 5856 5857 5858 5859 5861 5863 5865 5865 5866 5866 5866 5866 5865 5864 5864 5863 5863 5863 5862 5863 5863 5864 5864 5863 5863 5864 5863 5863 5863 5862 5861 5861 5860 5859 5858 5857 5856 5856 5855
5848 5847 5846 5846 5845 5846 5846 5847 5846 5844 5843 5846 5848 5849 5852 5854 5856 5857 5858 5859 5860 5860 5860 5859 5858 5858 5858 5858 5857 5857 5857 5857 5857 5857 5857 5858 5858 5858 5858 5858 5857 5856 5855 5854 5853 5852 5851 5851 5851
5839 5838 5837 5836 5835 5835 5836 5837 5835 5833 5833 5835 5837 5840 5842 5845 5847 5849 5851 5851 5853 5853 5853 5852 5851 5851 5851 5850 5850 5849 5850 5850 5851 5851 5851 5851 5852 5852 5852 5853 5852 5851 5850 5849 5848 5847 5846 5845 5845
5831 5830 5828 5827 5826 5825 5825 5827 5825 5823 5823 5824 5826 5829 5832 5835 5838 5841 5843 5844 5845 5846 5846 5846 5844 5843 5842 5841 5840 5840 5841 5843 5844 5844 5845 5845 5845 5846 5846 5846 5846 5845 5844 5843 5842 5841 5840 5839 5838
5824 5821 5819 5818 5817 5816 5815 5815 5816 5815 5813 5813 5815 5818 5821 5825 5829 5832 5834 5835 5836 5838 5838 5838 5837 5835 5833 5832 5831 5831 5833 5835 5837 5838 5839 5839 5839 5840 5840 5840 5839 5839 5838 5837 5836 5835 5834 5833 5832
5815 5812 5810 5809 5807 5807 5806 5804 5806 5806 5805 5805 5805 5807 5810 5814 5818 5822 5824 5826 5828 5829 5829 5830 5830 5827 5825 5823 5824 5826 5827 5828 5830 5832 5833 5834 5834 5834 5833 5833 5832 5832 5831 5830 5829 5828 5827 5826 5825
5803 5800 5798 5797 5796 5797 5797 5795 5795 5797 5796 5797 5797 5798 5801 5804 5808 5812 5814 5816 5817 5818 5820 5821 5820 5818 5817 5817 5819 5820 5821 5822 5823 5825 5827 5828 5828 5827 5827 5826 5825 5825 5824 5823 5822 5821 5820 5819 5818
5791 5788 5785 5783 5783 5785 5786 5785 5787 5788 5789 5789 5790 5791 5792 5796 5799 5802 5804 5806 5807 5808 5810 5810 5810 5809 5809 5811 5812 5813 5814 5815 5817 5819 5820 5821 5821 5821 5821 5820 5819 5818 5817 5816 5815 5814 5813 5812 5811
5777 5774 5773 5770 5771 5773 5774 5775 5779 5781 5782 5783 5784 5785 5786 5788 5790 5792 5794 5796 5797 5798 5799 5800 5801 5800 5801 5804 5805 5806 5807 5808 5810 5813 5814 5815 5815 5815 5815 5814 5812 5811 5810 5809 5808 5807 5806 5805 5804
5760 5758 5756 5756 5757 5761 5764 5766 5770 5773 5775 5777 5778 5779 5781 5782 5784 5785 5787 5788 5790 5790 5790 5790 5791 5793 5795 5797 5798 5800 5801 5802 5805 5807 5809 5809 5809 5809 5808 5807 5806 5805 5804 5803 5802 5801 5800 5799 5798
5747 5745 5745 5745 5748 5752 5756 5758 5763 5766 5768 5771 5773 5775 5776 5778 5778 5779 5781 5782 5783 5783 5783 5784 5786 5788 5790 5792 5794 5795 5797 5799 5801 5802 5803 5803 5803 5803 5801 5800 5798 5798 5797 5796 5795 5795 5794 5793 5792
5744 5742 5740 5741 5743 5747 5751 5757 5758 5761 5764 5767 5769 5771 5773 5774 5775 5775 5777 5777 5778 5778 5778 5780 5781 5784 5786 5788 5790 5792 5794 5796 5797 5797 5798 5797 5797 5795 5794 5792 5791 5791 5790 5789 5789 5788 5788 5788 5787
5744 5742 5741 5742 5744 5747 5750 5757 5756 5759 5762 5764 5766 5768 5770 5772 5773 5774 5774 5775 5776 5775 5777 5778 5780 5782 5784 5786 5788 5790 5792 5793 5793 5793 5792 5791 5790 5789 5788 5787 5785 5784 5783 5783 5783 5783 5783 5783 5783